sat.trackr.live / text

‹ back to catalog

STARLINK-35010

NORAD 65281 · 2025-184J

PAYLOAD ACTIVE UNKNOWN

§ Identity

Operator
Country
US
Launch date
2025-08-22
Launch site
AFWTR
Launch vehicle
Mass (kg)
RCS (m²)

Purposes: comms

External: N2YO · Heavens-Above · Gunter

§ Orbital elements

Epoch: 2026-05-25T02:52:06.643776Z

Period
95.64 min
Inclination
97.4480°
Eccentricity
0.0001924
Mean motion
15.05647058 rev/d
Perigee alt
548.2 km
Apogee alt
550.9 km
Semi-major
6,927.7 km
B*
3.9146e-4
RAAN
197.6648°
Arg perigee
100.2215°
Mean anomaly
259.9229°
Rev number
4,280

§ Raw data

STARLINK-350101 65281U 25184J   26145.11952134  .00005594  00000+0  39146-3 0  99942 65281  97.4480 197.6648 0001924 100.2215 259.9229 15.05647058 42807

JSON: /api/v1/satellites/65281 · /tle

For live sub-satellite position, see the globe view (requires WebGL).

§ Visibility from observer

Set your observer location to see the next 7 days of passes ≥ 10°. The values pass through the URL so the page stays shareable.

No JS? Fill the form by hand. The geolocation button needs JavaScript.